Regional Weather Roundup
Issued by NWS Green Bay, WI

Home | Current Version | Previous Version | Text Only | Print | Product List | Glossary On
Versions: 1 2 3 4 5 6 7 8 9 10 11 12 13 14 15 16 17 18 19 20 21 22 23 24 25 26 27 28 29 30 31 32 33 34 35 36 37 38 39 40 41 42 43 44 45 46 47 48 49 50
000
ASUS43 KGRB 301600
RWRGRB

NORTH-CENTRAL AND NORTHEAST WISCONSIN REGIONAL WEATHER ROUNDUP
NATIONAL WEATHER SERVICE GREEN BAY WI
1100 AM CDT SUN APR 30 2017

WIZ005-009-010>012-018-019-301700-
NORTH CENTRAL WISCONSIN

CITY           SKY/WX    TMP DP  RH WIND       PRES   REMARKS
IRONWOOD       CLOUDY    47  27  45 E14       30.09F
MANITOWISH WTR NOT AVBL
ARBOR VITAE    NOT AVBL
EAGLE RIVER    NOT AVBL
LAND O LAKES   NOT AVBL
RHINELANDER    CLOUDY    46  29  51 E16       30.07R
PHILLIPS       NOT AVBL
ANTIGO         NOT AVBL
TOMAHAWK       NOT AVBL
MERRILL        NOT AVBL
$$

WIZ013-073-301700-
NORTHEAST WISCONSIN

CITY           SKY/WX    TMP DP  RH WIND       PRES   REMARKS
IRON MOUNTAIN  CLOUDY    45  25  45 E7        30.07F
MARINETTE      CLOUDY    38  33  82 E22G32    30.08F
$$

WIZ017-030-035>037-045-301700-
CENTRAL WISCONSIN

CITY           SKY/WX    TMP DP  RH WIND       PRES   REMARKS
MEDFORD        NOT AVBL
WAUSAU         CLOUDY    44  32  62 E16       30.01R
MOSINEE        CLOUDY    43  36  75 E14       30.03R
MARSHFIELD     CLOUDY    43  34  70 E18G25    29.98S
WISC RAPIDS    CLOUDY    42  37  82 E12G23    30.00S
STEVENS POINT  NOT AVBL
WAUPACA        NOT AVBL
SHAWANO        NOT AVBL
CLINTONVILLE   NOT AVBL
WAUTOMA        CLOUDY    41  38  89 NE9G24    30.00
$$

WIZ038-039-048-051-301700-
FOX VALLEY

CITY           SKY/WX    TMP DP  RH WIND       PRES   REMARKS
NWS GREEN BAY  CLOUDY    41  41 100 NE20      30.01S FOG
APPLETON       CLOUDY    39  37  93 NE18G25   29.97S
OSHKOSH        CLOUDY    41  37  86 NE15G28   29.95F
FOND DU LAC    CLOUDY    41  37  86 NE16G28   29.94S
$$

WIZ022-050-052-301700-
EAST CENTRAL WISCONSIN

CITY           SKY/WX    TMP DP  RH WIND       PRES   REMARKS
EPHRAIM        NOT AVBL
WASHINGTON ISL NOT AVBL
STURGEON BAY   MIX PCPN  37  36  96 NE16G23   30.05S FOG
MANITOWOC      NOT AVBL
SHEBOYGAN      LGT RAIN  40  38  93 NE21G31   29.94F FOG
$$

LMZ563-521-522-541>543-301700-
LAKESHORE

STATION/POSITION TIME  TEMP    WIND        PRES    VSBY  WAVE
                       AIR SEA DIR/SP/G                  HT/PER
                 (UTC) (F)     (DEG/KT/KT) (MB)    (MI)  (FT/S)
SHEBOYGAN LKSHOR 1500   39      30/ 20/ 22 1014.4F
KEWAUNEE LKSHORE 1530   38      30/ 19/ 25 1016.0F
NORTHPORT PIER   1546   37      60/ 20/ 25 1018.6F
N MID LAKE BUOY  1450   37 37   80/ 21/ 25 1019.9F         5/ 5
CHAMBERS ISLAND  1540   37      40/ 14/ 21 1018.3F
MENOMINEE LKSHOR 1530   38      40/ 23/ 26 1017.5F
$$



USA.gov is the U.S. government's official web portal to all federal, state and local government web resources and services.